Location: Township of Marena
(38.1747°N, 99.6798°W)
Time: 05:08:40
(UTC+00:00)

Helios 1A Rocket - Pass Details

Date: 26 October 2020
Orbit: 562 x 587 km, 98.3° (Epoch: 25 November)

Event Time Altitude Azimuth Distance (km) Brightness Sun altitude
Rises 00:57:57 0° 161° (SSE) 2,797 6.3 -14.6°
Reaches altitude 10° 01:00:06 10° 159° (SSE) 1,899 5.4 -15.0°
Maximum altitude 01:04:12 72° 76° (ENE) 615 2.8 -15.8°
Drops below altitude 10° 01:08:18 10° 352° (N) 1,902 5.6 -16.6°
Sets 01:10:28 0° 350° (N) 2,801 6.5 -17.0°
